STARLINK-32168, 60335

Orbit data source: Space-Track

STARLINK-32168, 60335 is a payload satellite owned by SpaceX/Seattle (US) in LEO that was launched on Fri, 02 Aug 2024 UTC via an FALCON 9 launch vehicle from the Air Force Eastern Test Range (AFETR). Payload-class satellites include a variety of spacecraft equipped with specific instruments for various scientific and technological missions. These include communications satellites like Starlink; space stations such as the ISS; scientific satellites like the Hubble; Earth observation satellites from companies like Planet Labs, Umbra, and HawkEye 360; GPS; miniature CubeSats for education and research; and military/defense satellites.

Loading next visibility...
Identifier
60335, 2024-136G
Orbit
LEO
Last TLE update
1 day ago
Origin
Manufacturer
SpaceX/Seattle
Mission
Operational Commercial Communications
Bus & Motor
STARLINK V2M, Unknown motor
Mass
730 kg wet, ~700 kg dry
Launch date (UTC)
2024-08-02 (11 months ago)
Launch vehicle
FALCON 9
Launch site
Air Force Eastern Test Range (AFETR)
Object type
Payload
Rocket body
Debris
Shape & HBR
Box + 2 Pan, 29 m
Radar Cross Section
33.884 m², Large (>1 m²)

Expand to show TLE details & history

TLE from 1 day ago
0 STARLINK-32168
1 60335U 24136G   25181.25440163  .00000257  00000-0  20804-4 0  9997
2 60335  53.1592 168.3430 0001113  88.3209 271.7919 15.30196331 51010
Epoch: 2025-06-30T06:06Z
TLE epoch observation values (Epoch: 2025-06-30T06:06:20.3Z)
Latitude
-0.00006°
Longitude
158.19153°
Altitude
476.102 km
Speed
7.629 km/s
True Right ascension
11h 13m 22s
True Declination
0° 00' 00"
Sunlit
Object was in daylight at epoch
Visualization orbit readout
Latitude
40.55368°
Longitude
-167.70687°
Altitude
478.326 km
Speed
7.632 km/s
Apparent Right ascension
11h 54m 08s
Apparent Declination
2° 16' 31"
Sunlit
Object is in daylight
Visualization observer readout
Local Sidereal Time
22:11:52
Azimuth
324.69° NNW
Elevation
-41.748°
Doppler factor
1
Orbital elements
Apogee altitude
476.245 km
Perigee altitude
474.72 km
Semi-major axis
6,853.62 km
Eccentricity
0.00011
Inclination
53.1592°
RAAN
168.343°
Arg. of periapsis
88.3209°
True anomaly
Unknown
Mean anomaly
271.7919°
Eccentric anomaly
Unknown
Mean motion
3.82528 °/min
Orbital period
94.11 mins
BSTAR
0.000020804
Loading maneuver chart data...
Loading SW <> Apogee altitude chart data...
Loading historical data...
Loading historical data...
Loading historical data...
Loading historical data...
Loading historical data...
Loading historical data...
Loading historical data...

STARLINK-32168 Visibility forecast

Observer location: undefined°, undefined°

Span
Click to sort rows by Start time (UTC) header in descending order
Start Az.
Max El. time (UTC)
Max El. Az.
Max El.
End time (UTC)
End Az.
5 mins2025-07-02 00:35:24.109Z178.512° S2025-07-02 00:37:24.109Z137.185° SSE22.861°2025-07-02 00:40:24.109Z76.596° E
5 mins2025-07-02 02:13:24.109Z268.882° W2025-07-02 02:15:24.109Z326.699° NNW32.095°2025-07-02 02:18:24.109Z34.562° NE
5 mins2025-07-02 07:10:24.109Z342.821° N2025-07-02 07:12:24.109Z31.153° NE24.466°2025-07-02 07:15:24.109Z88.034° E
5 mins2025-07-02 08:48:24.109Z285.173° WNW2025-07-02 08:50:24.109Z222.159° SW33.872°2025-07-02 08:53:24.109Z156.363° SSE
|